Location: Unspecified
(0.0000°N, 0.0000°E)
Time: 01:10:31
(UTC+00:00)

Transit 4A - Pass Details

Date: 03 October 2020
Orbit: 862 x 982 km, 66.8° (Epoch: 25 October)

Event Time Altitude Azimuth Distance (km) Brightness Sun altitude
Rises 18:15:48 0° 174° (S) 3,462 10.9 -6.7°
Reaches altitude 10° 18:18:49 10° 159° (SSE) 2,537 10.0 -7.5°
Maximum altitude 18:23:16 22° 109° (ESE) 1,836 8.9 -8.6°
Drops below altitude 10° 18:27:46 10° 60° (ENE) 2,587 9.7 -9.7°
Enters shadow 18:28:33 - 55° (NE) 2,810 9.9 -9.9°
